TimeEDT,TemperatureF,Dew PointF,Humidity,Sea Level PressureIn,VisibilityMPH,Wind Direction,Wind SpeedMPH,Gust SpeedMPH,PrecipitationIn,Events,Conditions,WindDirDegrees,DateUTC
12:15 AM,72.0,72.0,100,29.99,4.0,Calm,Calm,-,N/A,,Clear,0,2013-07-22 04:15:00
12:35 AM,72.0,72.0,100,29.99,3.0,Calm,Calm,-,N/A,,Clear,0,2013-07-22 04:35:00
12:55 AM,71.8,71.8,100,29.99,7.0,Calm,Calm,-,N/A,,Clear,0,2013-07-22 04:55:00
1:15 AM,71.6,71.6,100,29.98,7.0,Calm,Calm,-,N/A,,Clear,0,2013-07-22 05:15:00
1:35 AM,71.1,71.1,100,29.98,7.0,Calm,Calm,-,N/A,,Clear,0,2013-07-22 05:35:00
1:55 AM,70.9,70.9,100,29.96,7.0,Calm,Calm,-,N/A,,Scattered Clouds,0,2013-07-22 05:55:00
2:15 AM,70.7,70.7,100,29.95,5.0,Calm,Calm,-,N/A,,Overcast,0,2013-07-22 06:15:00
2:35 AM,70.9,70.9,100,29.94,5.0,Calm,Calm,-,N/A,,Overcast,0,2013-07-22 06:35:00
2:55 AM,70.9,70.9,100,29.93,5.0,Calm,Calm,-,N/A,,Mostly Cloudy,0,2013-07-22 06:55:00
3:15 AM,70.3,70.3,100,29.93,3.0,Calm,Calm,-,N/A,,Mist,0,2013-07-22 07:15:00
3:35 AM,69.8,69.8,100,29.92,2.5,Calm,Calm,-,N/A,,Mist,0,2013-07-22 07:35:00
3:55 AM,69.6,69.6,100,29.93,2.5,Calm,Calm,-,N/A,,Mist,0,2013-07-22 07:55:00
4:15 AM,70.0,70.0,100,29.93,3.0,Calm,Calm,-,N/A,,Overcast,0,2013-07-22 08:15:00
4:35 AM,70.7,70.7,100,29.93,4.0,Calm,Calm,-,N/A,,Mostly Cloudy,0,2013-07-22 08:35:00
4:55 AM,70.2,70.2,100,29.93,3.0,Calm,Calm,-,N/A,,Mist,0,2013-07-22 08:55:00
5:15 AM,69.8,69.8,100,29.93,2.5,Calm,Calm,-,N/A,,Mist,0,2013-07-22 09:15:00
5:35 AM,69.8,69.8,100,29.94,2.5,Calm,Calm,-,N/A,,Mist,0,2013-07-22 09:35:00
5:55 AM,70.2,70.2,100,29.94,2.5,Calm,Calm,-,N/A,,Overcast,0,2013-07-22 09:55:00
6:15 AM,70.3,70.3,100,29.95,2.0,Calm,Calm,-,N/A,,Overcast,0,2013-07-22 10:15:00
6:35 AM,70.7,70.7,100,29.95,3.0,Calm,Calm,-,N/A,,Overcast,0,2013-07-22 10:35:00
6:55 AM,70.9,70.9,100,29.96,2.5,Calm,Calm,-,N/A,,Overcast,0,2013-07-22 10:55:00
7:15 AM,71.2,71.2,100,29.96,1.8,Calm,Calm,-,N/A,,Overcast,0,2013-07-22 11:15:00
7:35 AM,71.2,71.2,100,29.96,2.0,Calm,Calm,-,N/A,,Overcast,0,2013-07-22 11:35:00
7:55 AM,71.6,71.6,100,29.97,3.0,Calm,Calm,-,N/A,,Overcast,0,2013-07-22 11:55:00
8:15 AM,71.6,71.6,100,29.98,4.0,Calm,Calm,-,0.01,,Overcast,0,2013-07-22 12:15:00
8:35 AM,71.8,71.8,100,29.99,5.0,Calm,Calm,-,0.01,,Overcast,0,2013-07-22 12:35:00
8:55 AM,72.0,72.0,100,29.99,7.0,Calm,Calm,-,0.01,,Overcast,0,2013-07-22 12:55:00
9:35 AM,73.0,73.0,100,29.98,10.0,Calm,Calm,-,N/A,,Overcast,0,2013-07-22 13:35:00
10:35 AM,74.3,74.3,100,29.98,10.0,SSW,3.5,-,N/A,,Overcast,210,2013-07-22 14:35:00
10:55 AM,75.2,75.0,99,29.98,10.0,Calm,Calm,-,N/A,,Overcast,0,2013-07-22 14:55:00
11:15 AM,75.9,73.2,91,29.98,10.0,Calm,Calm,-,N/A,,Mostly Cloudy,0,2013-07-22 15:15:00
11:35 AM,76.1,73.8,92,29.98,10.0,Calm,Calm,-,N/A,,Mostly Cloudy,0,2013-07-22 15:35:00
11:55 AM,76.1,73.0,90,29.98,10.0,Calm,Calm,-,N/A,,Overcast,0,2013-07-22 15:55:00
12:15 PM,77.9,71.8,81,29.98,10.0,Calm,Calm,-,N/A,,Mostly Cloudy,0,2013-07-22 16:15:00
12:35 PM,77.5,72.7,85,29.97,10.0,Calm,Calm,-,N/A,,Mostly Cloudy,0,2013-07-22 16:35:00
12:55 PM,79.5,72.5,79,29.97,10.0,Calm,Calm,-,N/A,,Mostly Cloudy,0,2013-07-22 16:55:00
1:15 PM,80.2,73.0,79,29.96,10.0,SW,4.6,-,N/A,,Scattered Clouds,220,2013-07-22 17:15:00
1:35 PM,80.8,72.7,76,29.95,10.0,South,8.1,-,N/A,,Clear,190,2013-07-22 17:35:00
1:55 PM,80.2,72.1,76,29.94,10.0,South,5.8,-,N/A,,Scattered Clouds,170,2013-07-22 17:55:00
2:15 PM,80.8,72.1,75,29.93,10.0,South,6.9,-,N/A,,Scattered Clouds,190,2013-07-22 18:15:00
2:35 PM,81.7,72.1,73,29.92,10.0,SSE,5.8,-,N/A,,Clear,160,2013-07-22 18:35:00
2:55 PM,81.0,71.2,72,29.91,10.0,SSE,4.6,-,N/A,,Clear,160,2013-07-22 18:55:00
3:15 PM,82.0,72.0,71,29.91,10.0,South,6.9,-,N/A,,Scattered Clouds,190,2013-07-22 19:15:00
3:35 PM,82.8,71.6,69,29.91,10.0,South,8.1,-,N/A,,Scattered Clouds,170,2013-07-22 19:35:00
3:55 PM,81.9,71.1,70,29.91,10.0,South,8.1,-,N/A,,Scattered Clouds,170,2013-07-22 19:55:00
4:15 PM,82.4,71.2,69,29.91,10.0,South,9.2,-,N/A,,Scattered Clouds,190,2013-07-22 20:15:00
4:35 PM,81.7,71.6,71,29.90,10.0,South,8.1,-,N/A,,Clear,180,2013-07-22 20:35:00
4:55 PM,82.4,71.2,69,29.89,10.0,SSW,6.9,-,N/A,,Clear,200,2013-07-22 20:55:00
5:15 PM,82.4,71.1,68,29.88,10.0,South,6.9,-,N/A,,Clear,180,2013-07-22 21:15:00
5:35 PM,82.4,71.6,70,29.88,10.0,South,6.9,-,N/A,,Clear,180,2013-07-22 21:35:00
5:55 PM,81.7,71.4,71,29.88,10.0,SSW,5.8,-,N/A,,Clear,200,2013-07-22 21:55:00
6:15 PM,79.7,71.1,75,29.87,10.0,South,5.8,-,N/A,,Clear,190,2013-07-22 22:15:00
6:35 PM,79.7,71.2,75,29.87,10.0,Calm,Calm,-,N/A,,Clear,0,2013-07-22 22:35:00
6:55 PM,79.7,71.8,77,29.86,10.0,Calm,Calm,-,N/A,,Clear,0,2013-07-22 22:55:00
7:15 PM,79.7,72.3,78,29.86,10.0,Calm,Calm,-,N/A,,Clear,0,2013-07-22 23:15:00
7:35 PM,79.7,72.7,79,29.86,10.0,Calm,Calm,-,N/A,,Clear,0,2013-07-22 23:35:00
7:55 PM,78.4,72.9,83,29.86,10.0,Calm,Calm,-,N/A,,Clear,0,2013-07-22 23:55:00
8:15 PM,77.9,72.7,84,29.86,10.0,Calm,Calm,-,N/A,,Clear,0,2013-07-23 00:15:00
8:35 PM,78.1,69.8,76,29.86,10.0,Calm,Calm,-,N/A,,Clear,0,2013-07-23 00:35:00
8:55 PM,77.5,68.9,75,29.86,10.0,Calm,Calm,-,N/A,,Clear,0,2013-07-23 00:55:00
9:15 PM,76.3,69.1,78,29.87,10.0,Calm,Calm,-,N/A,,Clear,0,2013-07-23 01:15:00
9:35 PM,73.4,70.5,91,29.87,10.0,Calm,Calm,-,N/A,,Clear,0,2013-07-23 01:35:00
9:55 PM,74.3,70.7,88,29.88,10.0,Calm,Calm,-,N/A,,Clear,0,2013-07-23 01:55:00
10:15 PM,74.7,70.0,85,29.88,10.0,Calm,Calm,-,N/A,,Clear,0,2013-07-23 02:15:00
10:35 PM,74.3,70.5,88,29.88,10.0,Calm,Calm,-,N/A,,Clear,0,2013-07-23 02:35:00
10:55 PM,74.3,71.2,90,29.87,10.0,South,3.5,-,N/A,,Clear,190,2013-07-23 02:55:00
11:15 PM,74.3,71.6,91,29.87,10.0,Calm,Calm,-,N/A,,Clear,0,2013-07-23 03:15:00
11:35 PM,74.1,73.4,98,29.87,10.0,Calm,Calm,-,N/A,,Clear,0,2013-07-23 03:35:00
11:55 PM,74.1,73.9,99,29.87,10.0,Calm,Calm,-,N/A,,Clear,0,2013-07-23 03:55:00